CAPE
0 0 0 0 0 0 0 0 1 0 0 0 0 0 0 0 0 0 0 3 3 1 0 0 0 0 0 0 0 0 0 0 0 0 2 2 4 6 11 8 4 1 1 3
0 0 0 0 0 0 0 0 0 0 0 0 0 0 0 0 0 0 0 2 1 0 0 0 0 0 0 0 0 0 0 0 0 0 0 4 5 2 5 3 0 0 0 1
0 0 0 0 0 0 0 0 0 0 0 0 0 0 0 0 0 0 0 1 1 0 0 0 0 0 0 0 0 0 0 0 0 2 1 3 9 9 1 1 1 0 0 1
0 0 0 0 0 0 0 0 0 0 0 0 0 1 0 0 0 0 0 2 0 0 0 0 0 0 0 0 0 0 0 0 0 0 0 0 1 0 2 2 0 0 0 0
0 0 0 0 0 0 0 0 0 5 0 0 0 0 0 0 0 0 0 0 1 0 0 0 0 0 0 0 0 0 0 0 0 0 0 0 0 0 0 0 0 0 0 0
0 0 0 0 0 0 0 0 0 0 4 0 0 0 0 0 0 0 0 0 0 0 0 0 0 0 0 0 0 0 0 0 0 0 0 0 0 0 0 0 0 0 0 0
0 0 0 0 0 0 0 0 2 3 1 1 0 0 0 0 0 0 0 0 0 0 0 0 0 0 0 0 0 0 0 0 0 0 0 0 0 0 0 0 0 0 0 0
0 0 0 0 0 0 0 0 0 0 0 0 0 0 0 0 0 0 0 0 0 0 0 0 0 0 0 0 0 0 0 0 0 0 0 0 0 0 0 0 0 0 0 0
0 0 0 0 0 0 0 0 0 0 0 0 0 0 0 0 0 0 0 0 0 0 0 0 0 0 0 0 0 0 0 0 0 0 0 0 0 0 0 0 0 0 0 0
0 0 0 0 0 0 0 0 0 5 0 0 0 0 0 0 0 0 0 0 0 0 0 0 0 0 0 0 0 0 0 0 0 0 0 0 0 0 0 0 0 0 0 0
0 0 0 0 0 0 0 0 0 0 0 0 0 0 0 0 0 0 0 0 0 0 0 0 0 0 0 0 0 0 0 0 0 0 0 0 0 0 0 0 0 0 0 0
0 0 0 0 0 0 0 0 0 0 0 0 0 0 0 0 0 0 0 0 0 0 0 0 0 0 0 0 0 0 0 0 0 0 0 0 0 0 0 0 0 0 0 0
0 0 0 0 0 0 0 0 0 0 0 0 0 0 0 0 0 0 0 0 0 0 0 0 0 0 0 0 0 0 0 0 0 0 0 0 0 0 0 0 0 0 0 0
0 0 0 0 0 0 0 0 0 0 0 0 0 0 0 0 0 0 0 0 0 0 0 0 0 0 0 0 0 0 0 0 0 0 0 0 0 0 0 0 0 0 0 0
0 0 0 0 0 0 0 0 0 0 0 0 0 0 0 0 0 0 0 0 0 0 0 0 0 0 0 0 0 0 0 0 0 0 0 0 0 0 0 0 0 0 0 0
4 0 0 0 0 0 0 0 0 0 0 0 0 0 0 0 0 0 0 0 0 0 0 0 0 0 0 0 0 0 0 0 0 0 0 0 0 0 0 0 0 0 0 0
1 7 0 0 0 0 0 0 0 0 0 0 0 0 0 0 0 0 0 0 0 0 0 0 0 0 0 0 0 0 0 0 0 0 0 0 0 0 0 0 0 0 0 0
0 0 4 0 2 9 0 0 0 0 0 0 0 0 0 0 0 0 0 0 0 0 0 0 0 0 0 0 0 0 0 0 0 0 0 0 0 0 0 0 0 0 0 0
2 1 0 0 0 0 0 0 0 0 0 0 0 0 0 0 0 0 0 0 0 0 0 0 0 0 0 0 0 0 0 0 0 0 0 0 0 0 0 0 0 0 0 0
1 2 15 4 2 0 0 0 0 0 0 0 0 0 0 0 0 0 0 0 0 0 0 0 0 0 0 0 0 0 0 0 0 0 0 0 0 0 0 0 0 0 0 0
0 13 9 0 7 1 0 0 0 0 0 0 0 0 0 0 0 0 0 0 0 0 0 0 0 0 0 0 0 0 0 0 0 0 0 0 0 0 0 0 0 0 0 0
0 0 4 6 10 1 0 0 0 0 0 0 0 0 0 0 0 0 0 0 0 0 0 0 0 0 0 0 0 0 0 0 0 0 0 0 0 0 0 0 0 0 0 0
0 0 2 0 0 0 0 0 0 0 0 0 0 0 0 0 0 0 0 0 0 0 0 0 0 0 0 0 0 0 0 0 0 0 0 0 0 0 0 0 0 0 0 0
0 0 0 0 0 0 0 0 0 0 0 0 0 0 0 0 0 0 0 0 0 0 0 0 0 0 0 0 0 0 0 0 0 0 0 0 0 0 0 0 0 0 0 0
0 0 0 0 0 0 0 0 0 0 0 0 0 0 0 0 0 0 0 0 0 0 0 0 0 0 0 0 0 0 0 0 0 0 0 0 0 0 0 0 0 0 0 0
0 0 0 0 0 0 0 0 0 0 0 0 0 0 0 0 0 0 0 0 0 0 0 0 0 0 0 0 0 0 0 0 0 0 0 0 0 0 0 0 0 0 0 0
CIN
0 0 0 0 0 0 0 0 0 0 0 0 0 0 0 0 0 0 0 0 0 0 0 0 0 0 0 0 0 0 0 0 0 0 0 -1 0 0 0 0 -7 0 -14 -18
0 0 0 0 0 0 0 0 0 0 0 0 0 0 0 0 0 0 0 0 0 0 0 0 0 0 0 0 0 0 0 0 0 0 0 0 0 -2 0 -3 0 0 0 0
0 0 0 0 0 0 0 0 0 0 0 0 0 0 0 0 0 0 0 0 0 0 0 0 0 0 0 0 0 0 0 0 0 0 0 0 0 0 0 0 0 0 0 0
0 0 0 0 0 0 0 0 0 0 0 0 0 0 0 0 0 0 0 0 0 0 0 0 0 0 0 0 0 0 0 0 0 0 0 0 0 0 0 0 0 0 0 0
0 0 0 0 0 0 0 0 0 -6 0 0 0 0 0 0 0 0 0 0 0 0 0 0 0 0 0 0 0 0 0 0 0 0 0 0 0 0 0 0 0 0 0 0
0 0 0 0 0 0 0 0 0 -16 -2 -2 0 0 0 0 0 0 0 0 0 0 0 0 0 0 0 0 0 0 0 0 0 0 0 0 0 0 0 0 0 0 0 0
0 0 0 0 0 0 0 0 0 0 0 0 0 0 0 0 0 0 0 0 0 0 0 0 0 0 0 0 0 0 0 0 0 0 0 0 0 0 0 0 0 0 0 0
0 0 0 0 0 0 0 0 0 0 0 0 0 0 0 0 0 0 0 0 0 0 0 0 0 0 0 0 0 0 0 0 0 0 0 0 0 0 0 0 0 0 0 0
0 0 0 0 0 0 0 0 0 0 0 0 0 0 0 0 0 0 0 0 0 0 0 0 0 0 0 0 0 0 0 0 0 0 0 0 0 0 0 0 0 0 0 0
0 0 0 0 0 0 0 0 0 -2 0 0 0 0 0 0 0 0 0 0 0 0 0 0 0 0 0 0 0 0 0 0 0 0 0 0 0 0 0 0 0 0 0 0
0 0 0 0 0 0 0 0 0 -1 0 0 0 0 0 0 0 0 0 0 0 0 0 0 0 0 0 0 0 0 0 0 0 0 0 0 0 0 0 0 0 0 0 0
0 0 0 0 0 0 0 0 0 0 0 0 0 0 0 0 0 0 0 0 0 0 0 0 0 0 0 0 0 0 0 0 0 0 0 0 0 0 0 0 0 0 0 0
0 0 0 0 0 0 0 0 0 0 0 0 0 0 0 0 0 0 0 0 0 0 0 0 0 0 0 0 0 0 0 0 0 0 0 0 0 0 0 0 0 0 0 0
0 0 0 0 0 0 0 0 0 0 0 0 0 0 0 0 0 0 0 0 0 0 0 0 0 0 0 0 0 0 0 0 0 0 0 0 0 0 0 0 0 0 0 0
0 0 0 0 0 0 0 0 0 0 0 0 0 0 0 0 0 0 0 0 0 0 0 0 0 0 0 0 0 0 0 0 0 0 0 0 0 0 0 0 0 0 0 0
-19 0 0 0 0 0 0 0 0 0 0 0 0 0 0 0 0 0 0 0 0 0 0 0 0 0 0 0 0 0 0 0 0 0 0 0 0 0 0 0 0 0 0 0
0 -1 -4 0 0 0 0 0 0 0 0 0 0 0 0 0 0 0 0 0 0 0 0 0 0 0 0 0 0 0 0 0 0 0 0 0 0 0 0 0 0 0 0 0
0 0 0 0 -15 -5 0 0 0 0 0 0 0 0 0 0 0 0 0 0 0 0 0 0 0 0 0 0 0 0 0 0 0 0 0 0 0 0 0 0 0 0 0 0
0 0 0 -3 0 0 0 0 0 0 0 0 0 0 0 0 0 0 0 0 0 0 0 0 0 0 0 0 0 0 0 0 0 0 0 0 0 0 0 0 0 0 0 0
-12 -24 -5 -10 -16 -4 0 0 0 0 0 0 0 0 0 0 0 0 0 0 0 0 0 0 0 0 0 0 0 0 0 0 0 0 0 0 0 0 0 0 0 0 0 0
0 -13 -8 -2 -2 -6 0 0 0 0 0 0 0 0 0 0 0 0 0 0 0 0 0 0 0 0 0 0 0 0 0 0 0 0 0 0 0 0 0 0 0 0 0 0
0 -1 -4 -1 -3 -1 0 0 0 0 0 0 0 0 0 0 0 0 0 0 0 0 0 0 0 0 0 0 0 0 0 0 0 0 0 0 0 0 0 0 0 0 0 0
0 0 -3 0 0 0 0 0 0 0 0 0 0 0 0 0 0 0 0 0 0 0 0 0 0 0 0 0 0 0 0 0 0 0 0 0 0 0 0 0 0 0 0 0
0 0 0 0 0 0 0 0 0 0 0 0 0 0 0 0 0 0 0 0 0 0 0 0 0 0 0 0 0 0 0 0 0 0 0 0 0 0 0 0 0 0 0 0
0 0 0 0 0 0 0 0 0 0 0 0 0 0 0 0 0 0 0 0 0 0 0 0 0 0 0 0 0 0 0 0 0 0 0 0 0 0 0 0 0 0 0 0
0 0 0 0 0 0 0 0 0 0 0 0 0 0 0 0 0 0 0 0 0 0 0 0 0 0 0 0 0 0 0 0 0 0 0 0 0 0 0 0 0 0 0 0
Wind_Speed
18 20 21 17 19 21 19 22 26 26 24 28 31 31 27 22 20 21 20 18 19 18 16 15 14 14 14 14 15 16 17 17 16 16 17 18 18 19 20 22 24 25 26 26
20 27 21 18 18 19 18 22 23 21 22 25 29 35 29 27 26 24 20 20 19 17 17 16 15 15 15 15 16 17 17 18 17 16 15 15 16 18 19 21 23 25 26 27
24 20 21 18 19 21 22 24 22 25 22 25 26 36 34 29 27 25 22 22 20 16 17 18 17 16 16 17 17 18 18 17 17 15 14 14 15 17 19 21 23 25 26 27
27 23 16 20 22 19 25 19 18 18 18 29 24 36 32 30 30 26 24 23 22 17 16 18 18 17 17 17 17 17 17 16 17 16 15 15 16 17 19 20 21 23 25 26
26 24 23 23 22 17 20 15 15 21 26 28 26 33 32 24 34 30 26 25 22 18 14 16 17 17 17 16 16 16 15 16 16 16 14 15 15 16 18 19 20 22 23 25
26 22 24 24 20 18 15 17 17 19 25 36 32 30 36 30 28 27 27 24 22 19 17 14 15 16 16 16 15 14 14 15 16 16 15 15 15 16 17 19 19 21 22 24
30 29 25 22 21 20 17 18 25 28 29 34 24 29 39 24 23 25 19 20 21 20 17 15 14 15 15 15 15 14 14 14 15 14 15 15 15 16 17 18 19 19 21 23
35 36 29 23 25 23 21 20 24 32 32 30 24 32 31 27 26 25 18 17 16 17 20 18 16 14 14 13 13 13 13 13 14 14 14 14 15 15 16 17 17 18 20 22
35 36 26 26 23 20 24 28 24 26 25 31 28 29 31 25 22 19 20 17 17 18 17 16 15 15 13 12 11 11 10 10 11 11 12 13 14 14 15 16 17 18 19 21
31 35 30 27 25 27 27 20 26 26 33 37 31 32 31 25 22 19 19 19 18 17 17 16 13 13 12 11 11 9 8 8 9 10 10 11 12 13 14 16 17 18 19 21
31 33 31 29 35 32 27 28 27 26 29 31 34 28 20 24 20 18 17 16 15 15 15 14 13 11 10 8 7 6 6 7 7 8 9 9 11 12 14 15 17 18 19 20
32 33 38 37 30 32 34 34 31 32 30 32 36 36 18 17 16 12 12 13 13 13 13 12 10 9 8 7 7 6 6 5 6 6 7 9 10 12 13 15 16 17 19 20
33 38 43 39 36 33 40 36 34 34 32 36 37 34 22 25 24 15 11 10 12 12 12 12 11 10 8 7 6 5 3 3 4 5 7 8 10 11 13 14 16 17 18 20
31 41 46 52 41 34 41 39 38 35 41 39 42 42 29 25 21 16 13 10 10 12 12 12 11 11 9 7 5 3 1 1 3 4 6 8 9 11 12 14 15 17 18 19
36 47 47 47 42 37 37 39 39 42 45 41 45 43 35 30 27 22 15 10 9 10 12 12 11 9 8 6 5 3 2 0 2 3 6 7 9 10 12 13 15 16 17 18
37 49 43 52 46 43 47 42 42 43 46 53 50 54 30 28 23 20 16 12 12 11 12 12 11 10 10 8 7 5 3 2 2 4 5 7 8 10 11 13 14 15 16 17
35 44 47 57 45 45 55 56 45 47 46 47 49 57 39 35 29 23 16 15 16 15 14 13 13 12 11 10 8 7 4 3 4 4 6 7 8 9 10 11 12 14 15 16
37 39 41 55 44 57 58 43 45 48 47 44 54 45 39 36 29 27 19 17 16 14 15 15 14 14 12 10 9 7 5 4 4 5 5 6 7 8 9 11 12 13 14 15
40 39 41 47 52 50 54 49 40 40 57 43 48 46 41 35 31 38 23 20 19 17 16 15 14 14 13 12 10 8 6 5 5 5 5 5 6 7 8 10 11 12 13 14
47 44 45 41 48 52 69 43 29 32 62 45 41 45 37 30 38 33 22 21 21 19 18 17 16 15 14 13 11 9 8 7 6 5 4 5 6 7 8 9 10 12 12 13
50 52 54 53 50 49 46 30 20 38 46 29 30 35 34 38 35 36 22 23 22 20 19 17 17 17 16 14 12 11 9 8 6 4 4 5 6 7 8 9 10 11 11 12
48 51 56 54 56 61 33 26 34 33 33 33 30 26 24 27 33 31 22 19 20 21 20 19 18 18 16 15 13 11 10 7 5 4 5 6 6 8 9 9 9 9 11 12
53 45 51 47 54 40 31 34 31 32 33 32 32 30 27 25 25 20 18 18 19 20 20 19 18 17 16 15 14 12 10 7 6 5 6 6 7 8 8 9 9 10 11 13
50 42 47 45 44 42 36 33 30 29 31 30 28 26 20 18 16 16 15 14 15 16 18 18 18 18 17 16 14 12 9 8 7 6 7 8 9 10 8 9 10 11 13 14
44 35 37 44 46 38 42 40 33 26 25 25 23 20 16 13 13 13 13 13 12 14 16 18 18 18 17 16 14 12 10 9 8 8 9 10 10 9 9 10 11 14 15 14
45 49 49 46 36 35 39 40 38 30 26 25 22 17 14 12 11 11 10 9 11 13 14 16 16 16 16 16 14 12 11 10 9 9 10 10 9 9 10 12 15 15 16 14
Wind_Direction
254 257 260 265 266 277 270 267 263 264 267 259 259 264 265 269 272 270 271 276 272 279 292 301 307 311 313 315 316 317 318 320 322 329 338 349 357 5 356 357 357 360 360 359
253 255 264 270 272 276 274 272 270 272 268 266 267 263 264 263 267 268 270 272 271 278 282 290 299 303 306 310 313 315 319 321 326 332 342 349 359 3 357 359 359 359 360 2
249 268 258 266 266 268 274 272 273 274 266 273 274 266 262 265 265 264 267 269 271 276 278 282 291 299 303 304 308 313 317 324 327 336 346 354 357 358 351 352 357 358 0 3
253 258 261 262 262 267 271 284 276 277 270 269 267 268 264 259 260 260 261 262 266 271 278 279 285 293 298 300 308 311 315 322 325 332 341 342 343 344 347 349 356 0 2 4
250 251 255 259 263 265 273 291 284 273 273 278 272 269 268 269 261 257 257 257 261 266 274 279 284 290 295 303 304 310 318 319 325 331 344 345 346 349 348 351 354 357 4 4
253 263 257 262 265 262 281 288 293 288 278 270 269 268 269 269 270 266 253 254 256 261 268 279 286 290 293 296 303 310 316 318 322 329 341 344 347 348 349 352 354 358 3 5
248 254 261 262 262 262 262 269 275 275 271 271 285 270 266 278 280 274 258 249 251 255 261 269 277 287 292 295 298 307 312 320 327 336 339 344 344 348 351 353 358 3 5 5
243 250 250 254 257 262 252 255 270 272 272 278 282 275 278 279 277 277 272 255 252 257 259 265 271 280 291 293 299 306 312 315 324 331 338 342 347 353 1 9 12 13 12 10
245 249 257 255 259 254 258 255 267 281 288 281 280 283 285 286 285 275 266 258 253 257 260 264 269 276 283 291 300 309 318 328 327 331 337 347 2 12 17 13 12 13 14 13
255 253 256 257 258 260 261 253 261 267 274 273 280 281 279 290 278 279 270 257 255 256 260 265 272 278 283 287 297 309 318 325 331 338 350 4 12 13 15 17 14 14 13 12
253 256 258 253 248 250 254 255 260 272 270 278 279 285 300 292 292 281 275 261 253 255 255 262 272 275 279 285 290 302 320 326 343 357 3 10 15 14 14 15 15 14 12 10
251 257 255 253 262 259 254 254 252 261 269 273 275 275 307 310 311 308 293 267 254 254 254 259 260 266 268 276 285 296 308 318 334 351 11 15 16 18 18 16 13 11 12 11
245 251 252 257 259 259 253 253 256 259 270 267 270 276 303 288 292 302 300 278 256 249 251 254 257 255 258 265 272 286 302 336 16 25 25 22 19 15 13 11 12 10 10 10
252 251 249 250 259 260 255 255 254 254 260 265 265 272 283 286 292 296 296 281 259 247 244 248 248 249 251 251 248 241 257 17 29 23 16 11 8 7 8 9 8 9 11 12
253 252 252 256 260 261 262 257 253 250 254 260 267 268 274 278 282 286 285 267 251 245 240 240 238 232 219 214 211 209 216 281 356 4 358 356 2 3 5 6 9 11 12 12
255 254 256 255 257 260 260 259 256 255 256 259 263 264 279 284 284 281 272 255 239 234 235 234 229 222 210 202 205 212 220 250 308 335 344 351 355 359 1 6 9 10 10 10
258 256 254 255 258 259 258 253 254 258 257 259 259 245 271 275 275 272 263 242 230 232 221 214 207 202 203 203 202 207 220 250 289 315 331 342 352 358 1 5 6 6 6 7
258 256 256 255 256 254 257 263 256 258 260 260 261 266 267 272 272 271 253 236 232 223 211 206 206 204 204 207 213 221 234 251 278 302 321 336 351 356 359 360 1 2 2 2
252 256 261 258 256 261 258 258 258 257 261 261 263 264 266 272 274 269 253 236 226 217 211 209 205 203 204 209 212 217 231 252 269 287 306 329 343 348 351 352 354 356 357 359
251 252 254 259 258 257 241 260 266 265 262 262 260 263 260 263 266 240 244 239 237 230 221 217 212 213 214 209 210 220 235 244 257 275 295 320 331 337 341 346 348 350 353 357
247 248 250 251 257 262 260 265 249 254 265 273 262 262 254 254 245 275 257 245 237 227 217 214 209 211 212 213 216 226 230 242 258 272 293 314 325 331 336 340 342 346 351 354
254 250 249 249 252 254 259 251 245 257 276 276 280 273 259 260 269 262 251 235 225 218 213 210 211 213 210 210 211 222 232 242 246 263 286 302 316 324 329 332 338 343 343 344
256 255 250 250 250 260 248 258 261 268 273 277 278 277 267 265 264 253 243 230 224 219 216 212 210 207 212 210 216 221 234 228 240 262 281 294 308 317 322 324 328 332 334 333
258 265 261 259 253 253 252 260 265 266 269 274 278 275 266 263 252 244 233 226 219 208 204 206 204 205 209 214 220 225 220 227 236 258 277 292 299 305 312 317 320 323 323 326
253 256 262 262 260 263 258 254 260 264 270 270 275 273 261 248 237 233 230 224 211 200 198 200 204 210 215 211 216 219 217 221 239 262 278 288 294 296 301 309 312 314 319 322
251 253 256 261 258 265 266 266 256 256 259 263 263 262 253 238 224 227 223 211 197 197 200 208 214 219 220 217 214 215 218 222 243 263 275 281 286 289 299 303 308 313 318 319